Check out our new BloomSky Weather System.

Active alerts

Houston, TX
  Details for Houston, TX Dense Fog Advisory


Thunder radar  blitzortung!


Rain radar more information rain snow radar


Visit our other weather sites:

Template documentation
and downloads

And another site



Weather Underground History page Text

Daily Summary for March 17, 2017 Units:  Metric    English   Both
« Previous Day
Next Day »
Daily Weekly Monthly Yearly Custom
  High: Low: Average:
Temperature: 26.9 °C 18.5 °C 21.8 °C
Dew Point: 19.3 °C 17.4 °C 18.3 °C
Humidity: 94 % 61 % 81 %
Wind Speed: 22.5 km/h 0 km/h 8.4 km/h
Wind Gust: 30.6 km/h - -
Wind:- - SSE
Pressure: 1023.2 hPa 1019.9 hPa -
Precipitation: 0 mm    
Historical Graphs
 
 
Tabular Data for March 17, 2017
Time Temperature Dew Point Pressure Wind Wind Speed Wind Gust Humidity Rainfall Rate (Hourly)
00:02 20.1 °C 18.4 °C 1021.6 hPa SSE 6.4 km/h 17.7 km/h 90 % 0 mm
00:07 20 °C 18.3 °C 1021.6 hPa South 6.4 km/h 17.7 km/h 90 % 0 mm
00:12 19.9 °C 18.2 °C 1021.6 hPa SSE 4.8 km/h 17.7 km/h 90 % 0 mm
00:17 19.8 °C 18.1 °C 1021.6 hPa SE 12.9 km/h 17.7 km/h 90 % 0 mm
00:22 19.8 °C 18.1 °C 1021.6 hPa SSE 11.3 km/h 17.7 km/h 90 % 0 mm
00:27 19.7 °C 18.2 °C 1021.6 hPa ESE 4.8 km/h 17.7 km/h 91 % 0 mm
00:32 19.7 °C 18.2 °C 1021.6 hPa SSE 8 km/h 17.7 km/h 91 % 0 mm
00:37 19.7 °C 18.2 °C 1021.6 hPa SSE 11.3 km/h 17.7 km/h 91 % 0 mm
00:41 19.7 °C 18.2 °C 1021.6 hPa South 11.3 km/h 17.7 km/h 91 % 0 mm
00:47 19.6 °C 18.1 °C 1021.6 hPa SE 12.9 km/h 17.7 km/h 91 % 0 mm
00:52 19.6 °C 18.1 °C 1021.2 hPa South 6.4 km/h 17.7 km/h 91 % 0 mm
00:57 19.6 °C 18.1 °C 1021.6 hPa SSE 9.7 km/h 17.7 km/h 91 % 0 mm
01:02 19.5 °C 18 °C 1021.2 hPa SE 16.1 km/h 17.7 km/h 91 % 0 mm
01:07 19.5 °C 18.2 °C 1021.2 hPa SSE 4.8 km/h 16.1 km/h 92 % 0 mm
01:12 19.4 °C 18.1 °C 1021.2 hPa ESE 4.8 km/h 16.1 km/h 92 % 0 mm
01:17 19.4 °C 18.1 °C 1021.2 hPa South 3.2 km/h 16.1 km/h 92 % 0 mm
01:22 19.4 °C 18.1 °C 1021.2 hPa SE 12.9 km/h 16.1 km/h 92 % 0 mm
01:27 19.5 °C 18.2 °C 1021.2 hPa SE 6.4 km/h 16.1 km/h 92 % 0 mm
01:32 19.5 °C 18.2 °C 1021.2 hPa SE 6.4 km/h 14.5 km/h 92 % 0 mm
01:37 19.5 °C 18.2 °C 1021.2 hPa SSE 11.3 km/h 17.7 km/h 92 % 0 mm
01:42 19.6 °C 18.3 °C 1021.2 hPa South 8 km/h 17.7 km/h 92 % 0 mm
01:47 19.6 °C 18.3 °C 1021.2 hPa South 4.8 km/h 17.7 km/h 92 % 0 mm
01:52 19.6 °C 18.3 °C 1021.2 hPa SSE 9.7 km/h 17.7 km/h 92 % 0 mm
01:57 19.6 °C 18.1 °C 1021.2 hPa SSE 6.4 km/h 17.7 km/h 91 % 0 mm
02:02 19.6 °C 18.1 °C 1021.2 hPa SE 8 km/h 19.3 km/h 91 % 0 mm
02:07 19.5 °C 18 °C 1021.2 hPa SSE 9.7 km/h 19.3 km/h 91 % 0 mm
02:12 19.4 °C 17.9 °C 1021.2 hPa SE 4.8 km/h 19.3 km/h 91 % 0 mm
02:17 19.4 °C 18.1 °C 1021.2 hPa ESE 4.8 km/h 17.7 km/h 92 % 0 mm
02:22 19.3 °C 18 °C 1021.2 hPa SE 9.7 km/h 17.7 km/h 92 % 0 mm
02:27 19.3 °C 18 °C 1021.2 hPa ESE 9.7 km/h 17.7 km/h 92 % 0 mm
02:32 19.3 °C 18 °C 1021.2 hPa SE 4.8 km/h 17.7 km/h 92 % 0 mm
02:37 19.2 °C 17.9 °C 1021.2 hPa SE 9.7 km/h 17.7 km/h 92 % 0 mm
02:42 19.2 °C 17.9 °C 1020.9 hPa South 4.8 km/h 14.5 km/h 92 % 0 mm
02:47 19.2 °C 17.9 °C 1020.9 hPa SSE 6.4 km/h 14.5 km/h 92 % 0 mm
02:52 19.2 °C 18 °C 1020.9 hPa SSE 8 km/h 14.5 km/h 93 % 0 mm
02:57 19.2 °C 18 °C 1020.9 hPa SE 1.6 km/h 14.5 km/h 93 % 0 mm
03:02 19.1 °C 17.9 °C 1020.9 hPa South 8 km/h 14.5 km/h 93 % 0 mm
03:07 19.1 °C 17.9 °C 1020.9 hPa SSE 3.2 km/h 12.9 km/h 93 % 0 mm
03:12 19.1 °C 17.9 °C 1020.9 hPa SE 9.7 km/h 16.1 km/h 93 % 0 mm
03:17 19.1 °C 17.9 °C 1020.9 hPa SSE 6.4 km/h 16.1 km/h 93 % 0 mm
03:22 19.1 °C 17.9 °C 1020.9 hPa SSE 4.8 km/h 16.1 km/h 93 % 0 mm
03:27 19.1 °C 17.9 °C 1020.9 hPa East 6.4 km/h 12.9 km/h 93 % 0 mm
03:32 19.1 °C 17.9 °C 1020.5 hPa SE 6.4 km/h 12.9 km/h 93 % 0 mm
03:37 19 °C 17.8 °C 1020.5 hPa SSE 6.4 km/h 16.1 km/h 93 % 0 mm
03:42 19 °C 17.8 °C 1020.5 hPa SE 6.4 km/h 16.1 km/h 93 % 0 mm
03:47 19 °C 17.8 °C 1020.5 hPa South 4.8 km/h 16.1 km/h 93 % 0 mm
03:52 18.9 °C 17.9 °C 1020.5 hPa South 4.8 km/h 11.3 km/h 94 % 0 mm
03:57 18.9 °C 17.9 °C 1020.5 hPa SE 6.4 km/h 11.3 km/h 94 % 0 mm
04:02 18.9 °C 17.9 °C 1020.5 hPa SE 6.4 km/h 11.3 km/h 94 % 0 mm
04:07 18.9 °C 17.9 °C 1020.5 hPa South 4.8 km/h 12.9 km/h 94 % 0 mm
04:12 18.8 °C 17.8 °C 1020.5 hPa SE 8 km/h 12.9 km/h 94 % 0 mm
04:17 18.8 °C 17.8 °C 1020.5 hPa SE 6.4 km/h 14.5 km/h 94 % 0 mm
04:23 18.8 °C 17.8 °C 1020.5 hPa South 3.2 km/h 14.5 km/h 94 % 0 mm
04:28 18.8 °C 17.8 °C 1020.5 hPa South 3.2 km/h 14.5 km/h 94 % 0 mm
04:33 18.8 °C 17.8 °C 1020.5 hPa SE 3.2 km/h 11.3 km/h 94 % 0 mm
04:38 18.7 °C 17.7 °C 1020.5 hPa SSW 4.8 km/h 11.3 km/h 94 % 0 mm
04:43 18.7 °C 17.7 °C 1020.5 hPa SE 4.8 km/h 11.3 km/h 94 % 0 mm
04:53 18.7 °C 17.7 °C 1020.5 hPa SSE 1.6 km/h 9.7 km/h 94 % 0 mm
04:58 18.6 °C 17.6 °C 1020.5 hPa SSE 4.8 km/h 9.7 km/h 94 % 0 mm
05:03 18.6 °C 17.6 °C 1020.5 hPa ESE 3.2 km/h 8 km/h 94 % 0 mm
05:08 18.6 °C 17.6 °C 1020.5 hPa SE 4.8 km/h 8 km/h 94 % 0 mm
05:13 18.6 °C 17.6 °C 1020.9 hPa SSW 6.4 km/h 9.7 km/h 94 % 0 mm
05:18 18.7 °C 17.7 °C 1020.9 hPa SSE 6.4 km/h 9.7 km/h 94 % 0 mm
05:23 18.7 °C 17.7 °C 1020.9 hPa SE 1.6 km/h 9.7 km/h 94 % 0 mm
05:28 18.7 °C 17.7 °C 1020.9 hPa SE 1.6 km/h 8 km/h 94 % 0 mm
05:33 18.7 °C 17.7 °C 1020.9 hPa SE 3.2 km/h 8 km/h 94 % 0 mm
05:38 18.7 °C 17.7 °C 1020.9 hPa South 3.2 km/h 8 km/h 94 % 0 mm
05:43 18.7 °C 17.7 °C 1020.9 hPa South 6.4 km/h 8 km/h 94 % 0 mm
05:48 18.7 °C 17.7 °C 1020.9 hPa SSE 6.4 km/h 8 km/h 94 % 0 mm
05:53 18.7 °C 17.7 °C 1021.2 hPa SSW 6.4 km/h 8 km/h 94 % 0 mm
05:58 18.7 °C 17.7 °C 1021.2 hPa SSE 4.8 km/h 8 km/h 94 % 0 mm
06:03 18.8 °C 17.8 °C 1021.2 hPa SSE 3.2 km/h 8 km/h 94 % 0 mm
06:08 18.8 °C 17.8 °C 1021.2 hPa ESE 3.2 km/h 8 km/h 94 % 0 mm
06:13 18.8 °C 17.8 °C 1021.2 hPa SE 8 km/h 8 km/h 94 % 0 mm
06:18 18.8 °C 17.8 °C 1021.2 hPa South 1.6 km/h 9.7 km/h 94 % 0 mm
06:23 18.8 °C 17.6 °C 1021.2 hPa ESE 3.2 km/h 9.7 km/h 93 % 0 mm
06:28 18.8 °C 17.6 °C 1021.2 hPa SE 1.6 km/h 9.7 km/h 93 % 0 mm
06:33 18.8 °C 17.6 °C 1021.2 hPa South 6.4 km/h 9.7 km/h 93 % 0 mm
06:38 18.8 °C 17.6 °C 1021.2 hPa ESE 3.2 km/h 9.7 km/h 93 % 0 mm
06:43 18.8 °C 17.6 °C 1021.2 hPa SSE 6.4 km/h 9.7 km/h 93 % 0 mm
06:48 18.8 °C 17.6 °C 1021.2 hPa SE 6.4 km/h 11.3 km/h 93 % 0 mm
06:53 18.8 °C 17.6 °C 1021.2 hPa ESE 3.2 km/h 11.3 km/h 93 % 0 mm
06:58 18.8 °C 17.6 °C 1021.2 hPa SSE 1.6 km/h 11.3 km/h 93 % 0 mm
07:03 18.7 °C 17.5 °C 1021.6 hPa ESE 3.2 km/h 8 km/h 93 % 0 mm
07:08 18.7 °C 17.5 °C 1021.6 hPa Calm   8 km/h 93 % 0 mm
07:13 18.7 °C 17.5 °C 1021.6 hPa ESE 4.8 km/h 8 km/h 93 % 0 mm
07:18 18.7 °C 17.5 °C 1021.6 hPa SE 3.2 km/h 8 km/h 93 % 0 mm
07:23 18.7 °C 17.5 °C 1021.6 hPa ESE 3.2 km/h 8 km/h 93 % 0 mm
07:28 18.6 °C 17.4 °C 1021.6 hPa ESE 4.8 km/h 8 km/h 93 % 0 mm
07:33 18.6 °C 17.4 °C 1021.6 hPa SE 1.6 km/h 8 km/h 93 % 0 mm
07:38 18.6 °C 17.4 °C 1021.6 hPa SE 3.2 km/h 8 km/h 93 % 0 mm
07:43 18.5 °C 17.5 °C 1021.6 hPa SE 1.6 km/h 8 km/h 94 % 0 mm
07:48 18.5 °C 17.5 °C 1021.6 hPa SSE 4.8 km/h 6.4 km/h 94 % 0 mm
07:53 18.6 °C 17.6 °C 1021.6 hPa SE 1.6 km/h 6.4 km/h 94 % 0 mm
07:58 18.7 °C 17.7 °C 1021.6 hPa ESE 6.4 km/h 6.4 km/h 94 % 0 mm
08:03 18.7 °C 17.7 °C 1021.6 hPa SE 3.2 km/h 8 km/h 94 % 0 mm
08:08 18.7 °C 17.7 °C 1021.6 hPa ESE 4.8 km/h 8 km/h 94 % 0 mm
08:13 18.8 °C 17.8 °C 1021.9 hPa SSW 1.6 km/h 8 km/h 94 % 0 mm
08:18 18.9 °C 17.9 °C 1021.9 hPa SE 4.8 km/h 6.4 km/h 94 % 0 mm
08:24 18.9 °C 17.7 °C 1021.9 hPa SE 4.8 km/h 6.4 km/h 93 % 0 mm
08:29 19 °C 17.8 °C 1021.9 hPa ESE 4.8 km/h 6.4 km/h 93 % 0 mm
08:34 19.1 °C 17.9 °C 1021.9 hPa ESE 4.8 km/h 8 km/h 93 % 0 mm
08:39 19.2 °C 18 °C 1021.9 hPa ESE 6.4 km/h 8 km/h 93 % 0 mm
08:44 19.3 °C 18 °C 1022.2 hPa SSE 3.2 km/h 9.7 km/h 92 % 0 mm
08:49 19.4 °C 18.1 °C 1022.2 hPa ESE 4.8 km/h 9.7 km/h 92 % 0 mm
08:54 19.5 °C 18.2 °C 1022.2 hPa East 6.4 km/h 9.7 km/h 92 % 0 mm
08:59 19.6 °C 18.3 °C 1022.2 hPa SE 4.8 km/h 9.7 km/h 92 % 0 mm
09:04 19.8 °C 18.5 °C 1022.2 hPa South 6.4 km/h 9.7 km/h 92 % 0 mm
09:09 20.1 °C 18.6 °C 1022.2 hPa SE 8 km/h 11.3 km/h 91 % 0 mm
09:14 20.4 °C 18.7 °C 1022.2 hPa SE 12.9 km/h 12.9 km/h 90 % 0 mm
09:19 20.6 °C 18.7 °C 1022.2 hPa SSE 8 km/h 16.1 km/h 89 % 0 mm
09:24 20.9 °C 18.8 °C 1022.2 hPa SE 9.7 km/h 16.1 km/h 88 % 0 mm
09:29 21.2 °C 18.9 °C 1022.2 hPa ESE 14.5 km/h 19.3 km/h 87 % 0 mm
09:34 21.3 °C 19 °C 1022.2 hPa SSE 8 km/h 19.3 km/h 87 % 0 mm
09:39 21.6 °C 19.2 °C 1022.2 hPa East 14.5 km/h 19.3 km/h 86 % 0 mm
09:44 21.7 °C 19.1 °C 1022.2 hPa SSE 9.7 km/h 22.5 km/h 85 % 0 mm
09:49 21.8 °C 19 °C 1022.2 hPa ESE 9.7 km/h 22.5 km/h 84 % 0 mm
09:54 21.9 °C 19.1 °C 1022.2 hPa SE 11.3 km/h 22.5 km/h 84 % 0 mm
09:59 21.8 °C 18.6 °C 1022.2 hPa South 11.3 km/h 20.9 km/h 82 % 0 mm
10:04 21.9 °C 18.9 °C 1022.2 hPa South 17.7 km/h 24.1 km/h 83 % 0 mm
10:14 22 °C 19 °C 1022.2 hPa SSE 8 km/h 29 km/h 83 % 0 mm
10:19 22.2 °C 18.8 °C 1022.6 hPa SSE 8 km/h 29 km/h 81 % 0 mm
10:24 22.5 °C 19.1 °C 1022.6 hPa South 8 km/h 24.1 km/h 81 % 0 mm
10:29 22.7 °C 18.9 °C 1022.6 hPa SE 12.9 km/h 20.9 km/h 79 % 0 mm
10:34 22.8 °C 19 °C 1022.6 hPa SE 9.7 km/h 22.5 km/h 79 % 0 mm
10:39 23 °C 19 °C 1022.9 hPa SE 8 km/h 22.5 km/h 78 % 0 mm
10:44 23.1 °C 18.8 °C 1022.6 hPa ESE 22.5 km/h 22.5 km/h 77 % 0 mm
10:49 22.8 °C 18.6 °C 1022.9 hPa South 16.1 km/h 22.5 km/h 77 % 0 mm
10:54 22.9 °C 18.9 °C 1022.9 hPa ESE 11.3 km/h 24.1 km/h 78 % 0 mm
10:59 23.1 °C 18.6 °C 1022.9 hPa South 9.7 km/h 24.1 km/h 76 % 0 mm
11:04 23.1 °C 18.6 °C 1022.9 hPa SSE 6.4 km/h 30.6 km/h 76 % 0 mm
11:09 23 °C 18.5 °C 1022.9 hPa SSE 22.5 km/h 30.6 km/h 76 % 0 mm
11:14 23 °C 18.5 °C 1022.9 hPa ESE 11.3 km/h 30.6 km/h 76 % 0 mm
11:19 23.1 °C 18.6 °C 1022.9 hPa SE 3.2 km/h 24.1 km/h 76 % 0 mm
11:24 23.3 °C 18.6 °C 1022.9 hPa SSE 6.4 km/h 24.1 km/h 75 % 0 mm
11:29 23.3 °C 18.4 °C 1022.9 hPa SSE 11.3 km/h 24.1 km/h 74 % 0 mm
11:34 23.3 °C 18.6 °C 1023.2 hPa SSE 11.3 km/h 24.1 km/h 75 % 0 mm
11:39 23.3 °C 18.6 °C 1023.2 hPa SSE 6.4 km/h 24.1 km/h 75 % 0 mm
11:44 23.4 °C 18.7 °C 1023.2 hPa South 8 km/h 24.1 km/h 75 % 0 mm
11:49 23.4 °C 18.5 °C 1023.2 hPa SE 11.3 km/h 24.1 km/h 74 % 0 mm
11:54 23.8 °C 18.7 °C 1023.2 hPa SSW 6.4 km/h 24.1 km/h 73 % 0 mm
12:00 23.9 °C 18.8 °C 1023.2 hPa SSW 3.2 km/h 20.9 km/h 73 % 0 mm
12:05 24.1 °C 18.7 °C 1022.9 hPa SE 16.1 km/h 20.9 km/h 72 % 0 mm
12:10 24.1 °C 18.5 °C 1022.9 hPa SE 4.8 km/h 25.7 km/h 71 % 0 mm
12:15 24.4 °C 19 °C 1022.9 hPa SE 8 km/h 25.7 km/h 72 % 0 mm
12:20 24.5 °C 18.7 °C 1022.9 hPa East 12.9 km/h 24.1 km/h 70 % 0 mm
12:25 24.7 °C 18.6 °C 1022.9 hPa SSE 11.3 km/h 27.4 km/h 69 % 0 mm
12:30 24.9 °C 18.8 °C 1022.9 hPa SSW 9.7 km/h 27.4 km/h 69 % 0 mm
12:35 24.9 °C 18.3 °C 1022.9 hPa SSE 19.3 km/h 27.4 km/h 67 % 0 mm
12:40 24.8 °C 18.5 °C 1022.9 hPa South 9.7 km/h 22.5 km/h 68 % 0 mm
12:45 24.8 °C 19 °C 1022.9 hPa SW 12.9 km/h 22.5 km/h 70 % 0 mm
12:50 25.1 °C 18.5 °C 1022.6 hPa SSE 9.7 km/h 25.7 km/h 67 % 0 mm
12:55 25.4 °C 19.3 °C 1022.6 hPa SSW 8 km/h 25.7 km/h 69 % 0 mm
13:00 25.6 °C 19 °C 1022.6 hPa SW 17.7 km/h 25.7 km/h 67 % 0 mm
13:05 25.8 °C 18.7 °C 1022.2 hPa South 14.5 km/h 24.1 km/h 65 % 0 mm
13:10 25.6 °C 18.3 °C 1022.2 hPa SSE 12.9 km/h 27.4 km/h 64 % 0 mm
13:15 25.6 °C 18.5 °C 1022.2 hPa SE 17.7 km/h 27.4 km/h 65 % 0 mm
13:20 25.6 °C 18.8 °C 1022.2 hPa South 9.7 km/h 27.4 km/h 66 % 0 mm
13:25 25.6 °C 18.5 °C 1021.9 hPa SSE 9.7 km/h 24.1 km/h 65 % 0 mm
13:30 25.3 °C 18.5 °C 1021.9 hPa SSE 11.3 km/h 22.5 km/h 66 % 0 mm
13:35 25.3 °C 18.7 °C 1021.9 hPa South 9.7 km/h 22.5 km/h 67 % 0 mm
13:40 25.8 °C 19 °C 1021.9 hPa ESE 11.3 km/h 27.4 km/h 66 % 0 mm
13:45 25.9 °C 19.1 °C 1021.9 hPa ESE 14.5 km/h 27.4 km/h 66 % 0 mm
13:50 25.9 °C 19.1 °C 1021.9 hPa SSE 14.5 km/h 27.4 km/h 66 % 0 mm
13:55 25.7 °C 18.6 °C 1021.6 hPa SE 9.7 km/h 29 km/h 65 % 0 mm
14:00 25.7 °C 18.6 °C 1021.6 hPa SW 20.9 km/h 29 km/h 65 % 0 mm
14:05 25.5 °C 18.4 °C 1021.6 hPa ESE 16.1 km/h 29 km/h 65 % 0 mm
14:10 25.4 °C 19.1 °C 1021.6 hPa SSE 12.9 km/h 25.7 km/h 68 % 0 mm
14:15 26 °C 19.2 °C 1021.6 hPa South 9.7 km/h 25.7 km/h 66 % 0 mm
14:20 26.2 °C 18.8 °C 1021.6 hPa South 22.5 km/h 27.4 km/h 64 % 0 mm
14:25 26.3 °C 19.2 °C 1021.2 hPa SE 17.7 km/h 27.4 km/h 65 % 0 mm
14:30 26.2 °C 18.6 °C 1021.2 hPa SSW 9.7 km/h 27.4 km/h 63 % 0 mm
14:35 25.8 °C 18.7 °C 1021.2 hPa South 9.7 km/h 25.7 km/h 65 % 0 mm
14:41 25.9 °C 19.1 °C 1021.2 hPa SW 9.7 km/h 20.9 km/h 66 % 0 mm
14:45 26.1 °C 18.8 °C 1020.9 hPa ESE 14.5 km/h 20.9 km/h 64 % 0 mm
14:51 25.9 °C 18.6 °C 1020.9 hPa SW 11.3 km/h 20.9 km/h 64 % 0 mm
14:56 25.7 °C 18.6 °C 1020.9 hPa SSE 11.3 km/h 20.9 km/h 65 % 0 mm
15:01 25.7 °C 19.1 °C 1020.9 hPa SSE 17.7 km/h 20.9 km/h 67 % 0 mm
15:06 25.8 °C 19.2 °C 1020.5 hPa South 11.3 km/h 20.9 km/h 67 % 0 mm
15:11 26.1 °C 19 °C 1020.5 hPa SE 9.7 km/h 20.9 km/h 65 % 0 mm
15:16 25.9 °C 19.1 °C 1020.5 hPa South 12.9 km/h 22.5 km/h 66 % 0 mm
15:21 26.1 °C 18.8 °C 1020.5 hPa SE 16.1 km/h 29 km/h 64 % 0 mm
15:26 26.4 °C 19 °C 1020.5 hPa SSW 8 km/h 29 km/h 64 % 0 mm
15:31 26.6 °C 19.2 °C 1020.5 hPa SE 12.9 km/h 29 km/h 64 % 0 mm
15:36 26.5 °C 18.6 °C 1020.5 hPa SSE 12.9 km/h 27.4 km/h 62 % 0 mm
15:41 26.7 °C 18.8 °C 1020.2 hPa SE 11.3 km/h 27.4 km/h 62 % 0 mm
15:46 26.8 °C 18.6 °C 1020.2 hPa ESE 14.5 km/h 27.4 km/h 61 % 0 mm
15:51 26.9 °C 18.7 °C 1020.2 hPa SSW 11.3 km/h 27.4 km/h 61 % 0 mm
15:56 26.9 °C 18.7 °C 1020.2 hPa SSW 19.3 km/h 27.4 km/h 61 % 0 mm
16:01 26.6 °C 18.7 °C 1020.2 hPa ESE 9.7 km/h 24.1 km/h 62 % 0 mm
16:06 26.5 °C 18.9 °C 1020.2 hPa SE 16.1 km/h 22.5 km/h 63 % 0 mm
16:11 26.2 °C 18.6 °C 1020.2 hPa SE 12.9 km/h 22.5 km/h 63 % 0 mm
16:16 26.2 °C 18.8 °C 1020.2 hPa SSE 12.9 km/h 20.9 km/h 64 % 0 mm
16:21 26.3 °C 18.9 °C 1020.2 hPa SW 8 km/h 20.9 km/h 64 % 0 mm
16:26 26.2 °C 18.8 °C 1020.2 hPa SE 12.9 km/h 22.5 km/h 64 % 0 mm
16:31 26.2 °C 18.6 °C 1020.2 hPa SSE 11.3 km/h 22.5 km/h 63 % 0 mm
16:36 26.1 °C 18.8 °C 1020.2 hPa SE 19.3 km/h 22.5 km/h 64 % 0 mm
16:41 26.1 °C 18.8 °C 1019.9 hPa SE 19.3 km/h 27.4 km/h 64 % 0 mm
16:46 26.3 °C 19.2 °C 1020.2 hPa South 6.4 km/h 27.4 km/h 65 % 0 mm
16:51 26.4 °C 19 °C 1020.2 hPa SE 11.3 km/h 27.4 km/h 64 % 0 mm
16:56 26.4 °C 19.3 °C 1020.2 hPa SE 12.9 km/h 24.1 km/h 65 % 0 mm
17:01 26.5 °C 18.9 °C 1019.9 hPa South 9.7 km/h 24.1 km/h 63 % 0 mm
17:06 26.3 °C 18.9 °C 1020.2 hPa SE 9.7 km/h 22.5 km/h 64 % 0 mm
17:11 26 °C 18.9 °C 1020.2 hPa South 8 km/h 20.9 km/h 65 % 0 mm
17:16 26.1 °C 19.2 °C 1020.2 hPa SSE 16.1 km/h 20.9 km/h 66 % 0 mm
17:21 26 °C 19.2 °C 1020.2 hPa ESE 19.3 km/h 22.5 km/h 66 % 0 mm
17:26 25.8 °C 18.7 °C 1020.2 hPa SSE 12.9 km/h 25.7 km/h 65 % 0 mm
17:31 25.5 °C 18.7 °C 1020.2 hPa SE 11.3 km/h 25.7 km/h 66 % 0 mm
17:36 25.4 °C 18.8 °C 1020.2 hPa East 22.5 km/h 25.7 km/h 67 % 0 mm
17:41 25.5 °C 18.9 °C 1020.2 hPa SE 9.7 km/h 30.6 km/h 67 % 0 mm
17:46 25.3 °C 19 °C 1020.2 hPa SSW 9.7 km/h 30.6 km/h 68 % 0 mm
17:51 25.3 °C 18.7 °C 1020.2 hPa SSE 9.7 km/h 30.6 km/h 67 % 0 mm
17:56 25 °C 18.7 °C 1020.5 hPa South 11.3 km/h 24.1 km/h 68 % 0 mm
18:01 24.8 °C 18.7 °C 1020.5 hPa SSE 9.7 km/h 24.1 km/h 69 % 0 mm
18:06 24.7 °C 18.6 °C 1020.5 hPa SSE 6.4 km/h 24.1 km/h 69 % 0 mm
18:11 24.7 °C 18.6 °C 1020.5 hPa SSE 11.3 km/h 20.9 km/h 69 % 0 mm
18:16 24.6 °C 18.8 °C 1020.5 hPa SE 8 km/h 22.5 km/h 70 % 0 mm
18:21 24.3 °C 18.5 °C 1020.5 hPa South 12.9 km/h 24.1 km/h 70 % 0 mm
18:26 24.2 °C 18.6 °C 1020.5 hPa SE 12.9 km/h 24.1 km/h 71 % 0 mm
18:31 24.1 °C 18.5 °C 1020.5 hPa SE 12.9 km/h 25.7 km/h 71 % 0 mm
18:36 24 °C 18.4 °C 1020.5 hPa SE 12.9 km/h 25.7 km/h 71 % 0 mm
18:41 23.8 °C 18.4 °C 1020.9 hPa SSE 12.9 km/h 25.7 km/h 72 % 0 mm
18:46 23.7 °C 18.4 °C 1020.9 hPa SE 8 km/h 24.1 km/h 72 % 0 mm
18:51 23.7 °C 18.4 °C 1020.9 hPa SE 4.8 km/h 24.1 km/h 72 % 0 mm
18:56 23.6 °C 18.3 °C 1020.9 hPa SE 12.9 km/h 24.1 km/h 72 % 0 mm
19:02 23.5 °C 18.4 °C 1020.9 hPa South 8 km/h 20.9 km/h 73 % 0 mm
19:07 23.3 °C 18.2 °C 1021.2 hPa SE 8 km/h 19.3 km/h 73 % 0 mm
19:12 23.2 °C 18.1 °C 1020.9 hPa SE 8 km/h 19.3 km/h 73 % 0 mm
19:17 23.1 °C 18.2 °C 1021.2 hPa SE 17.7 km/h 20.9 km/h 74 % 0 mm
19:22 23 °C 18.1 °C 1021.2 hPa SSE 8 km/h 20.9 km/h 74 % 0 mm
19:26 22.9 °C 18.2 °C 1021.2 hPa SE 11.3 km/h 20.9 km/h 75 % 0 mm
19:31 22.8 °C 18.1 °C 1021.2 hPa ESE 16.1 km/h 20.9 km/h 75 % 0 mm
19:37 22.7 °C 18 °C 1021.2 hPa SSE 8 km/h 20.9 km/h 75 % 0 mm
19:42 22.7 °C 18 °C 1021.2 hPa East 6.4 km/h 20.9 km/h 75 % 0 mm
19:52 22.6 °C 18.2 °C 1021.2 hPa ESE 17.7 km/h 17.7 km/h 76 % 0 mm
19:57 22.5 °C 18.1 °C 1021.2 hPa SSE 11.3 km/h 19.3 km/h 76 % 0 mm
20:02 22.4 °C 18.2 °C 1021.6 hPa SE 9.7 km/h 20.9 km/h 77 % 0 mm
20:07 22.3 °C 18.1 °C 1021.6 hPa SSE 12.9 km/h 20.9 km/h 77 % 0 mm
20:12 22.3 °C 18.3 °C 1021.6 hPa SE 9.7 km/h 20.9 km/h 78 % 0 mm
20:17 22.2 °C 18.2 °C 1021.6 hPa SE 16.1 km/h 17.7 km/h 78 % 0 mm
20:22 22.1 °C 18.1 °C 1021.6 hPa SSE 11.3 km/h 20.9 km/h 78 % 0 mm
20:27 22 °C 18.2 °C 1021.6 hPa SE 9.7 km/h 20.9 km/h 79 % 0 mm
20:32 21.9 °C 18.1 °C 1021.6 hPa SSE 9.7 km/h 20.9 km/h 79 % 0 mm
20:37 21.8 °C 18 °C 1021.6 hPa SSE 8 km/h 20.9 km/h 79 % 0 mm
20:42 21.7 °C 18.1 °C 1021.6 hPa SSE 3.2 km/h 20.9 km/h 80 % 0 mm
20:47 21.6 °C 18.2 °C 1021.6 hPa SSE 6.4 km/h 20.9 km/h 81 % 0 mm
20:52 21.5 °C 18.1 °C 1021.6 hPa SE 9.7 km/h 16.1 km/h 81 % 0 mm
20:57 21.4 °C 18 °C 1021.6 hPa SSE 6.4 km/h 12.9 km/h 81 % 0 mm
21:02 21.3 °C 18.1 °C 1021.6 hPa SSW 3.2 km/h 11.3 km/h 82 % 0 mm
21:07 21.3 °C 18.1 °C 1021.9 hPa ESE 4.8 km/h 11.3 km/h 82 % 0 mm
21:12 21.2 °C 18 °C 1021.9 hPa South 6.4 km/h 11.3 km/h 82 % 0 mm
21:17 21.1 °C 18.1 °C 1021.9 hPa SSE 4.8 km/h 12.9 km/h 83 % 0 mm
21:22 21.1 °C 18.1 °C 1021.9 hPa SE 9.7 km/h 14.5 km/h 83 % 0 mm
21:27 21 °C 18 °C 1021.9 hPa SSE 9.7 km/h 14.5 km/h 83 % 0 mm
21:32 20.9 °C 17.9 °C 1021.9 hPa SE 6.4 km/h 14.5 km/h 83 % 0 mm
21:37 20.9 °C 18.1 °C 1021.9 hPa SE 6.4 km/h 12.9 km/h 84 % 0 mm
21:42 20.8 °C 18 °C 1021.9 hPa SSE 8 km/h 12.9 km/h 84 % 0 mm
21:47 20.8 °C 18 °C 1021.9 hPa SSE 8 km/h 12.9 km/h 84 % 0 mm
21:52 20.7 °C 17.9 °C 1022.2 hPa SSE 4.8 km/h 12.9 km/h 84 % 0 mm
21:57 20.6 °C 18 °C 1022.2 hPa SE 8 km/h 11.3 km/h 85 % 0 mm
22:02 20.6 °C 18 °C 1022.2 hPa SSE 6.4 km/h 11.3 km/h 85 % 0 mm
22:07 20.6 °C 18 °C 1022.2 hPa SE 3.2 km/h 11.3 km/h 85 % 0 mm
22:12 20.6 °C 18 °C 1022.2 hPa SE 4.8 km/h 11.3 km/h 85 % 0 mm
22:17 20.5 °C 17.9 °C 1022.2 hPa South 3.2 km/h 11.3 km/h 85 % 0 mm
22:22 20.4 °C 18 °C 1022.2 hPa SE 6.4 km/h 11.3 km/h 86 % 0 mm
22:27 20.4 °C 18 °C 1022.2 hPa SSE 4.8 km/h 11.3 km/h 86 % 0 mm
22:32 20.3 °C 17.9 °C 1022.2 hPa SSE 3.2 km/h 12.9 km/h 86 % 0 mm
22:37 20.3 °C 17.9 °C 1022.6 hPa SE 3.2 km/h 12.9 km/h 86 % 0 mm
22:42 20.3 °C 17.9 °C 1022.6 hPa SE 4.8 km/h 12.9 km/h 86 % 0 mm
22:47 20.2 °C 18 °C 1022.6 hPa SSW 1.6 km/h 8 km/h 87 % 0 mm
22:52 20.2 °C 18 °C 1022.6 hPa South 4.8 km/h 8 km/h 87 % 0 mm
22:57 20.2 °C 18 °C 1022.6 hPa SE 1.6 km/h 9.7 km/h 87 % 0 mm
23:02 20.2 °C 18 °C 1022.6 hPa SSW 1.6 km/h 9.7 km/h 87 % 0 mm
23:07 20.1 °C 17.9 °C 1022.6 hPa SSE 1.6 km/h 9.7 km/h 87 % 0 mm
23:12 20.1 °C 18 °C 1022.9 hPa South 1.6 km/h 8 km/h 88 % 0 mm
23:17 20 °C 18 °C 1022.9 hPa SE 1.6 km/h 8 km/h 88 % 0 mm
23:22 20 °C 18 °C 1022.9 hPa SSE 3.2 km/h 8 km/h 88 % 0 mm
23:27 19.9 °C 17.9 °C 1022.9 hPa ESE 3.2 km/h 8 km/h 88 % 0 mm
23:32 19.9 °C 17.9 °C 1022.9 hPa SSE 1.6 km/h 8 km/h 88 % 0 mm
23:37 19.8 °C 17.8 °C 1022.9 hPa Calm   6.4 km/h 88 % 0 mm
23:42 19.7 °C 17.7 °C 1022.9 hPa SSE 1.6 km/h 6.4 km/h 88 % 0 mm
23:47 19.6 °C 17.7 °C 1022.9 hPa SE 1.6 km/h 6.4 km/h 89 % 0 mm
23:52 19.5 °C 17.6 °C 1022.9 hPa SSE 1.6 km/h 4.8 km/h 89 % 0 mm
23:57 19.4 °C 17.5 °C 1022.9 hPa SSE 1.6 km/h 4.8 km/h 89 % 0 mm
Spring, Texas: Villages of Bridgestone
Compliments of Weather Underground - 2.75 mb

Script developed by  Jim McMurry - jmcmurry@mwt.net Adapted for the template by  Wim van der Kuil - Leuven-Template.eu

You find our weather info also at:

UK Metoffice

WeatherCloud

Weather Underground

Mid-South Weather Network

AWEKAS

Citizen Weather Observer Program (CWOP)

HAMweather, WeatherForYou, PWS Weather

Equipment we use:

Weather-station
Davis Vantage Vue

Weather-program
Meteohub

Weather-server
Debian 7.9 x86 (Guest)

Provider
DreamHost

Davis Vantage Vue

Meteohub

Debian 7.9 x86 (Guest)

DreamHost